Regional Weather Roundup
Issued by NWS Jackson, KY

Home | Current Version | Previous Version | Graphics & Text | Print | Product List | Glossary On
Versions: 1 2 3 4 5 6 7 8 9 10 11 12 13 14 15 16 17 18 19 20 21 22 23 24 25 26 27 28 29 30 31 32 33 34 35 36 37 38 39 40 41 42 43 44 45 46 47 48 49 50
000
ASUS43 KJKL 231310
RWRJKL

EAST KENTUCKY HOURLY WEATHER ROUNDUP
NATIONAL WEATHER SERVICE JACKSON KY
900 AM EDT MON APR 23 2018

NOTE: "FAIR" INDICATES FEW OR NO CLOUDS BELOW 12,000 FEET WITH
NO SIGNIFICANT WEATHER AND/OR OBSTRUCTIONS TO VISIBILITY.

* THESE REPORTS ARE NOT UNDER NWS QUALITY CONTROL AND MAY NOT
  REPORT WEATHER SUCH AS PRECIPITATION AND FOG.

KYZ079-080-083-085-087-088-110-112-115-119-120-231400
...EASTERN KENTUCKY...

CITY           SKY/WX    TMP DP  RH WIND       PRES   REMARKS
JACKSON        LGT RAIN  55  51  86 VRB6      30.09F
LONDON         RAIN      53  52  96 E5        30.07R FOG
SOMERSET*      RAIN      54  54 100 CALM      30.07R
MONTICELLO*    LGT RAIN  55  53  93 SE6       30.05S
WILLIAMSBURG*  CLOUDY    54  54 100 E9        30.05R
MIDDLESBORO*   LGT RAIN  55  53  94 CALM      30.09F
HARLAN APT*    CLOUDY    54  50  87 E8        30.10R
PIKE CO APT*   PTSUNNY   59  47  64 SE8G17    30.12S
BIG SANDY APT*   N/A     61  47  59 SE14      30.12S
MOREHEAD APT*  CLOUDY    59  46  63 VRB7G14   30.12S
ASHLAND*         N/A     61  45  55 E8        30.15R
$$

KYZ035-036-041-042-044-050-067-078-099-231400
...CENTRAL KENTUCKY...

CITY           SKY/WX    TMP DP  RH WIND       PRES   REMARKS
MT STERLING*   LGT RAIN  54  50  87 E3        30.11S
FLEMING/MASON* CLOUDY    55  47  72 E10       30.13S
DANVILLE*      RAIN      52  52 100 E3        30.07R
LEXINGTON      RAIN      55  51  86 E10       30.07F FOG
FRANKFORT      LGT RAIN  53  48  83 E8        30.06F
LOUISVILLE     LGT RAIN  55  51  86 E12G21    30.04F
GLASGOW*       CLOUDY    56  52  85 E8        29.98S
BOWLING GREEN  CLOUDY    59  56  89 E12       29.97R
$$

KYZ091>093-OHZ055-061-077-WVZ005-015-034-035-042-231400
...SOUTHERN OHIO/WEST VIRGINIA...

CITY           SKY/WX    TMP DP  RH WIND       PRES   REMARKS
COVINGTON      CLOUDY    56  39  53 E7        30.11R
COLUMBUS       PTSUNNY   60  39  45 E14       30.20R
DAYTON         PTSUNNY   57  40  52 E16       30.16S
WILMINGTON       N/A     56  42  59 E10       30.15R
HUNTINGTON       N/A     61  45  55 E7        30.13S
CHARLESTON       N/A     62  44  51 SE8G20    30.17S
PINEVILLE*     CLOUDY    59  43  56 MISG      30.24F
BECKLEY          N/A     52  39  61 SE15G31   30.22F
BLUEFIELD      PTSUNNY   50  38  63 E12G24    30.22F
LOGAN CO APT*    N/A     59  45  58 SE21G33   30.15F
$$

VAZ002-007-008-TNZ017-027-036-066-071-231400
...SOUTHWEST VIRGINIA/EAST TENNESSEE...

CITY           SKY/WX    TMP DP  RH WIND       PRES   REMARKS
WISE*          LGT RAIN  52  46  82 SE14G20   30.15S
JONESVILLE*    LGT RAIN  54  52  94 E9G16     30.14S
ABINGDON*      LGT RAIN  55  47  74 SE14G23   30.18R
BRISTOL        LGT RAIN  55  49  80 E13       30.17R
MORRISTOWN*    CLOUDY    54  52  94 E8        30.08R
SEVIERVILLE*   MOSUNNY   61  48  63 CALM      30.04R
KNOXVILLE      LGT RAIN  54  54 100 N3        30.03R FOG
LAFOLLETTE*    PTSUNNY   55  54  94 E6        30.10S FOG
OAK RIDGE      LGT RAIN  55  55 100 CALM      30.07R FOG
CROSSVILLE     LGT RAIN  52  50  93 E12       30.03S FOG
NASHVILLE      CLOUDY    60  57  89 SE10      29.94R FOG
$$

...KEY TO REMARKS...
VSB - VISIBILITY IN MILES
WCI - WIND CHILL INDEX
HX  - HEAT INDEX

$$



USA.gov is the U.S. government's official web portal to all federal, state and local government web resources and services.